Regional Weather Roundup
Issued by NWS Cleveland, OH

Home | Current Version | Previous Version | Graphics & Text | Print | Product List | Glossary On
Versions: 1 2 3 4 5 6 7 8 9 10 11 12 13 14 15 16 17 18 19 20 21 22 23 24 25 26 27 28 29 30 31 32 33 34 35 36 37 38 39 40 41 42 43 44 45 46 47 48 49 50
000
ASUS41 KCLE 230600
RWRCLE
OHIO REGIONAL WEATHER ROUNDUP
NATIONAL WEATHER SERVICE WILMINGTON, OH
100 AM EST THU FEB 23 2017

NOTE: "FAIR" INDICATES FEW OR NO CLOUDS BELOW 12,000 FEET WITH NO
SIGNIFICANT WEATHER AND/OR OBSTRUCTIONS TO VISIBILITY.

OHZ001>008-015>018-024>027-034-035-043-044-230700-
   NORTHWEST OHIO

CITY           SKY/WX    TMP DP  RH WIND       PRES   REMARKS
DEFIANCE       CLOUDY    56  53  90 S10       29.71S FOG
FINDLAY        MOCLDY    57  52  83 S12       29.73R
TOLEDO EXPRESS CLOUDY    57  56  96 S8        29.70S FOG
TOLEDO EXEC    CLOUDY    57  55  93 S13       29.71F FOG
LIMA           FAIR      56  55  97 S9        29.74S
$$

OHZ009>014-019>023-028>033-038-089-230700-
   NORTHEAST OHIO

CITY           SKY/WX    TMP DP  RH WIND       PRES   REMARKS
CLE-HOPKINS    CLOUDY    58  51  78 S12       29.77F
CLE-LAKEFRONT  MOCLDY    58  52  80 S16       29.74S
CUY CO. ARPT   NOT AVBL
LORAIN-ELYRIA  MOCLDY    55  51  86 S13       29.75S
ASHTABULA      CLOUDY    56  52  86 S13       29.78S
AKRON-CANTON   CLOUDY    55  51  86 S12       29.79F
WOOSTER        NOT AVBL
MANSFIELD      MOCLDY    55  54  96 S15       29.76F
YOUNGSTOWN     CLOUDY    56  51  84 S8        29.81F
$$

OHZ042-051>053-060>062-070>072-077>081-230700-
  SOUTHWEST OHIO

CITY           SKY/WX    TMP DP  RH WIND       PRES   REMARKS
CINC-COVINGTON FAIR      58  55  90 S8        29.78F
CINC-LUNKEN    FAIR      51  51 100 SW8       29.79F FOG
HAMILTON       FAIR      52  51  97 VRB3      29.78F
DAYTON         NOT AVBL
WRIGHT-PAT AFB CLEAR     54  54 100 SW3       29.77S
DAYTON GENERAL FAIR      56  54  93 S7        29.76F
WILMINGTON     FAIR      56  55  97 S10       29.78F
$$

OHZ036-037-039>041-045>050-054>059-063>069-073>076-082>088-230700-
  CENTRAL AND SOUTHEAST OHIO

CITY           SKY/WX    TMP DP  RH WIND       PRES   REMARKS
COLUMBUS       FAIR      56  53  90 SE7       29.79F
OSU AIRPORT    FAIR      55  55 100 S9        29.78F
BOLTON FIELD   NOT AVBL
RICKENBACK AFB NOT AVBL
NEWARK         MOCLDY    56  53  90 S8        29.79F
MARION         FAIR      54  52  93 S13       29.77S FOG
LANCASTER      FAIR      59  54  83 S10       29.81F
ZANESVILLE     FAIR      54  52  93 SE8       29.81F
NEW PHILLY     CLOUDY    55  53  93 SE5       29.81F
$$



USA.gov is the U.S. government's official web portal to all federal, state and local government web resources and services.